User: anonymous   Login
Location: Cranbrook Institute of Science
(42.5830°N, 83.2450°W)
Time: 17:57:38
(UTC-05:00)
Language:

CZ-4B R/B - Orbit

View from above orbital plane
View from above orbital plane
View from above satellite
View from above satellite

Ground track
Ground track

The orbit data is extracted from the following two-line orbital elements,

1 29093U 06015B   15027.18902892  .00010034  00000-0  32696-3 0  5048
2 29093 097.5027 112.8732 0083328 191.4299 222.9927 15.28654709483744
Epoch (UTC): 27 January 2015 04:32:12
Eccentricity: 0.0083328
inclination: 97.5027°
perigee height: 422 km
apogee height: 537 km
right ascension of ascending node: 112.8732°
argument of perigee: 191.4299°
revolutions per day: 15.28654709
mean anomaly at epoch: 222.9927°
orbit number at epoch: 48374

The dashed part of the orbit path shows where the satellite is in the earth's shadow,  

DLR